Погода в Теплике

Украина / Винницкая область     48°39′59″N   29°44′41″E
темп.,
°C
ветер,
м/с
пор.,
м/с
влажн.,
%
обл.,
%
осадки,
мм/ч
давл.,
гПа
погр.,
м
9 мая, вс
вс900:00+4зсз411885 0.0 1020322
03:00+3зсз410944 0.0 1021236
06:00+2зсз49940 0.0 1023231
09:00+7сз57710 0.0 1024782
12:00+11сз57535 0.0 10241769
15:00+13сз4645100 0.0 10242339
18:00+13сз355065 0.0 10242008
21:00+8с11635 0.0 102610
10 мая, пн
пн1000:00+6вюв33744 0.0 102726
03:00+6ююв22754 0.0 102714
06:00+6юв22744 0.0 102710
09:00+11юв33615 0.0 1027345
12:00+14юв22470 0.0 10271563
15:00+16юв21440 0.0 10251677
18:00+16всв11461 0.0 10241571
21:00+11всв35701 0.0 102467
11 мая, вт
вт1100:00+8в36720 0.0 102599
03:00+7св34690 0.0 102453
06:00+6ссв36770 0.0 102390
09:00+11ссв586179 0.0 1022533
12:00+15ссв565794 0.0 1020915
15:00+18ссв566169 0.0 10181084
18:00+18ссв587183 0.0 10171178
21:00+14св611848 0.1 1016513
12 мая, ср
ср1200:00+9всв510915 0.0 1017434
03:00+7св48965 0.0 1017237
06:00+5всв5109679 0.0 1017427
09:00+8всв698395 0.1 1016811
12:00+10в6863100 0.1 10161388
15:00+12в4659100 0.1 10141544
18:00+12в2463100 0.0 1013358
21:00+10в347691 0.1 101391
13 мая, чт
чт1300:00+8вюв35888 0.1 1013102
03:00+6юв349129 0.1 101354
06:00+7юв498146 0.0 1012241
09:00+12юв696685 0.0 1012554
12:00+15ююв6861100 0.0 1011972
15:00+16ююв6864100 0.0 10101358
18:00+13ю3692100 2.3 1009292
21:00+12ю1194100 5.7 100927